| time (UTC) | temp F | wind direction | speed knots | gust knots | rain 1hr in | rain 24hr in | rain mn in | humidity % | barometer mb |
| 20260906231005 | 74 | 77 | 0.9 | 1.7 | 0.00 | 0.13 | 0.01 | 84 | 909.4 |
| 20260906230506 | 74 | 300 | 0.0 | 1.7 | 0.00 | 0.13 | 0.01 | 82 | 909.0 |
| 20260906230005 | 75 | 4 | 0.0 | 2.6 | 0.00 | 0.13 | 0.01 | 81 | 909.0 |
| 20260906224505 | 76 | 29 | 0.0 | 0.9 | 0.00 | 0.13 | 0.01 | 79 | 910.0 |
| 20260906224005 | 76 | 24 | 0.0 | 1.7 | 0.00 | 0.13 | 0.01 | 78 | 911.0 |
| 20260906223505 | 77 | 136 | 0.0 | 0.9 | 0.00 | 0.13 | 0.01 | 77 | 911.8 |
| 20260906223005 | 77 | 290 | 0.0 | 2.6 | 0.00 | 0.13 | 0.01 | 76 | 912.6 |
| 20260906221504 | 78 | 324 | 0.9 | 4.3 | 0.00 | 0.13 | 0.01 | 72 | 916.5 |
| 20260906221005 | 78 | 281 | 0.9 | 1.7 | 0.00 | 0.13 | 0.01 | 72 | 915.5 |
| 20260906220505 | 77 | 307 | 1.7 | 1.7 | 0.00 | 0.13 | 0.01 | 76 | 913.6 |
| 20260906220005 | 78 | 344 | 0.0 | 2.6 | 0.00 | 0.13 | 0.01 | 75 | 914.9 |
| 20260906214505 | 80 | 285 | 0.9 | 4.3 | 0.00 | 0.13 | 0.01 | 68 | 920.5 |
| 20260906214005 | 81 | 357 | 1.7 | 2.6 | 0.00 | 0.13 | 0.01 | 69 | 920.0 |
| 20260906213505 | 82 | 339 | 2.6 | 4.3 | 0.00 | 0.13 | 0.01 | 65 | 922.0 |
| 20260906211505 | 81 | 50 | 0.0 | 2.6 | 0.00 | 0.13 | 0.01 | 67 | 921.4 |
| 20260906211004 | 80 | 308 | 0.9 | 2.6 | 0.00 | 0.13 | 0.01 | 71 | 918.0 |
| 20260906210505 | 79 | 239 | 0.9 | 1.7 | 0.00 | 0.13 | 0.01 | 73 | 915.9 |
| 20260906210004 | 79 | 226 | 0.0 | 1.7 | 0.00 | 0.13 | 0.01 | 74 | 916.1 |
| 20260906204505 | 79 | 103 | 0.0 | 2.6 | 0.00 | 0.13 | 0.01 | 70 | 919.8 |
| 20260906204005 | 79 | 280 | 0.0 | 0.9 | 0.00 | 0.13 | 0.01 | 68 | 920.4 |
| 20260906203504 | 80 | 233 | 0.9 | 2.6 | 0.00 | 0.13 | 0.01 | 67 | 921.8 |
| 20260906201505 | 82 | 289 | 0.9 | 5.2 | 0.00 | 0.13 | 0.01 | 61 | 923.5 |
| 20260906201005 | 83 | 282 | 0.9 | 2.6 | 0.00 | 0.13 | 0.01 | 59 | 923.5 |
| 20260906200504 | 81 | 246 | 1.7 | 2.6 | 0.00 | 0.13 | 0.01 | 64 | 922.7 |
| 20260906200004 | 81 | 270 | 2.6 | 7.0 | 0.00 | 0.13 | 0.01 | 61 | 923.2 |
| 20260906194004 | 80 | 286 | 0.0 | 1.7 | 0.00 | 0.13 | 0.01 | 70 | 920.0 |
| 20260906193504 | 81 | 257 | 0.9 | 1.7 | 0.00 | 0.13 | 0.01 | 67 | 921.3 |
| 20260906193004 | 81 | 162 | 0.0 | 4.3 | 0.00 | 0.13 | 0.01 | 64 | 922.4 |
| 20260906191504 | 83 | 213 | 1.7 | 5.2 | 0.00 | 0.13 | 0.01 | 58 | 924.0 |
| 20260906191004 | 83 | 79 | 2.6 | 5.2 | 0.00 | 0.13 | 0.01 | 59 | 923.9 |
| 20260906190504 | 83 | 171 | 1.7 | 2.6 | 0.01 | 0.13 | 0.01 | 60 | 924.0 |
| 20260906190004 | 82 | 56 | 1.7 | 5.2 | 0.01 | 0.13 | 0.01 | 60 | 923.6 |
| 20260906184504 | 81 | 353 | 1.7 | 4.3 | 0.01 | 0.13 | 0.01 | 60 | 924.0 |
| 20260906184004 | 81 | 354 | 0.9 | 4.3 | 0.01 | 0.13 | 0.01 | 64 | 923.7 |
| 20260906183504 | 81 | 339 | 0.9 | 2.6 | 0.01 | 0.13 | 0.01 | 67 | 920.7 |
| 20260906183004 | 81 | 291 | 0.9 | 4.3 | 0.01 | 0.13 | 0.01 | 68 | 919.0 |
| 20260906181504 | 80 | 9 | 1.7 | 4.3 | 0.03 | 0.13 | 0.03 | 66 | 922.3 |
| 20260906181004 | 79 | 177 | 1.7 | 2.6 | 0.03 | 0.13 | 0.03 | 70 | 919.8 |
| 20260906180004 | 78 | 170 | 0.9 | 2.6 | 0.02 | 0.14 | 0.03 | 77 | 913.6 |
| 20260906174505 | 80 | 269 | 0.9 | 1.7 | 0.00 | 0.12 | 0.00 | 70 | 919.9 |
| 20260906174005 | 81 | 23 | 2.6 | 7.0 | 0.00 | 0.12 | 0.00 | 66 | 923.2 |
| 20260906173504 | 83 | 330 | 1.7 | 5.2 | 0.00 | 0.12 | 0.00 | 60 | 923.5 |
| 20260906171504 | 81 | 285 | 1.7 | 4.3 | 0.00 | 0.12 | 0.00 | 64 | 922.5 |
| 20260906170504 | 80 | 253 | 0.9 | 4.3 | 0.00 | 0.12 | 0.00 | 68 | 921.3 |
| 20260906170004 | 80 | 243 | 1.7 | 4.3 | 0.00 | 0.12 | 0.00 | 65 | 921.6 |
| 20260906164504 | 78 | 232 | 1.7 | 2.6 | 0.00 | 0.12 | 0.00 | 75 | 917.3 |
| 20260906164004 | 78 | 182 | 0.9 | 2.6 | 0.00 | 0.12 | 0.00 | 73 | 919.9 |
| 20260906163504 | 78 | 301 | 0.0 | 2.6 | 0.00 | 0.12 | 0.00 | 74 | 918.3 |
| 20260906163004 | 79 | 138 | 0.9 | 4.3 | 0.00 | 0.12 | 0.00 | 71 | 920.4 |
| 20260906160504 | 80 | 90 | 0.9 | 2.6 | 0.00 | 0.19 | 0.00 | 70 | 921.8 |
| 20260906160004 | 80 | 263 | 1.7 | 4.3 | 0.00 | 0.20 | 0.00 | 72 | 917.5 |
| 20260906154505 | 79 | 140 | 2.6 | 4.3 | 0.00 | 0.21 | 0.00 | 71 | 921.1 |
| 20260906154006 | 77 | 71 | 0.9 | 4.3 | 0.00 | 0.21 | 0.00 | 74 | 919.9 |
| 20260906153506 | 76 | 198 | 0.9 | 4.3 | 0.00 | 0.21 | 0.00 | 77 | 916.2 |
| 20260906153005 | 75 | 155 | 1.7 | 5.2 | 0.00 | 0.21 | 0.00 | 79 | 914.9 |
| 20260906151505 | 75 | 75 | 1.7 | 4.3 | 0.00 | 0.21 | 0.00 | 80 | 913.0 |
| 20260906150505 | 75 | 44 | 1.7 | 4.3 | 0.00 | 0.21 | 0.00 | 81 | 912.7 |
| 20260906150005 | 74 | 192 | 0.9 | 4.3 | 0.00 | 0.21 | 0.00 | 83 | 911.3 |
| 20260906144506 | 73 | 4 | 1.7 | 5.2 | 0.00 | 0.21 | 0.00 | 86 | 909.0 |
| 20260906144005 | 72 | 74 | 1.7 | 5.2 | 0.00 | 0.21 | 0.00 | 87 | 908.8 |
| 20260906143505 | 72 | 2 | 1.7 | 2.6 | 0.00 | 0.21 | 0.00 | 89 | 908.7 |
| 20260906143006 | 72 | 201 | 0.9 | 5.2 | 0.00 | 0.21 | 0.00 | 89 | 908.8 |
| 20260906141505 | 72 | 336 | 0.0 | 1.7 | 0.00 | 0.21 | 0.00 | 91 | 910.1 |
| 20260906141006 | 72 | 294 | 1.7 | 4.3 | 0.00 | 0.21 | 0.00 | 91 | 910.3 |
| 20260906140506 | 71 | 168 | 0.9 | 4.3 | 0.00 | 0.21 | 0.00 | 94 | 911.9 |
| 20260906140005 | 71 | 238 | 0.0 | 2.6 | 0.00 | 0.21 | 0.00 | 94 | 913.5 |
| 20260906134505 | 70 | 178 | 0.9 | 2.6 | 0.00 | 0.21 | 0.00 | 93 | 912.7 |
| 20260906134005 | 70 | 175 | 0.9 | 1.7 | 0.00 | 0.21 | 0.00 | 96 | 917.0 |
| 20260906133505 | 70 | 189 | 0.9 | 1.7 | 0.00 | 0.21 | 0.00 | 96 | 918.0 |
| 20260906133005 | 69 | 170 | 0.9 | 1.7 | 0.00 | 0.21 | 0.00 | 96 | 923.2 |
| 20260906131505 | 67 | 217 | 0.0 | 0.9 | 0.00 | 0.21 | 0.00 | 96 | 923.1 |
| 20260906131005 | 67 | 223 | 0.0 | 0.9 | 0.00 | 0.21 | 0.00 | 96 | 922.9 |
| 20260906130505 | 67 | 194 | 0.0 | 1.7 | 0.00 | 0.21 | 0.00 | 96 | 922.8 |
| 20260906130005 | 67 | 163 | 0.0 | 1.7 | 0.00 | 0.21 | 0.00 | 96 | 922.9 |
| 20260906124505 | 66 | 208 | 0.0 | 1.7 | 0.00 | 0.21 | 0.00 | 95 | 922.5 |
| 20260906124005 | 65 | 190 | 0.0 | 0.9 | 0.00 | 0.21 | 0.00 | 95 | 922.3 |
| 20260906123505 | 65 | 191 | 0.0 | 1.7 | 0.00 | 0.21 | 0.00 | 95 | 922.2 |
| 20260906123005 | 65 | 165 | 0.0 | 1.7 | 0.00 | 0.21 | 0.00 | 95 | 922.1 |
| 20260906121505 | 65 | 14 | 0.0 | 0.0 | 0.00 | 0.21 | 0.00 | 95 | 921.5 |
| 20260906121005 | 65 | 64 | 0.0 | 0.9 | 0.00 | 0.21 | 0.00 | 95 | 921.5 |
| 20260906120505 | 65 | 328 | 0.0 | 1.7 | 0.01 | 0.21 | 0.01 | 95 | 921.6 |
| 20260906120005 | 65 | 254 | 0.0 | 1.7 | 0.01 | 0.21 | 0.01 | 95 | 921.5 |
| 20260906113504 | 64 | 125 | 0.0 | 0.9 | 0.00 | 0.20 | 0.00 | 95 | 921.1 |
| 20260906111004 | 64 | 16 | 0.9 | 1.7 | 0.00 | 0.20 | 0.00 | 95 | 920.9 |
| 20260906110504 | 65 | 136 | 0.0 | 0.9 | 0.00 | 0.20 | 0.00 | 95 | 920.9 |
| 20260906110005 | 65 | 70 | 0.0 | 1.7 | 0.00 | 0.20 | 0.00 | 95 | 920.9 |
| 20260906104504 | 65 | 112 | 0.0 | 0.9 | 0.00 | 0.20 | 0.00 | 95 | 920.9 |
| 20260906103504 | 65 | 166 | 0.0 | 0.9 | 0.00 | 0.20 | 0.00 | 95 | 921.0 |
| 20260906103004 | 65 | 114 | 0.9 | 1.7 | 0.00 | 0.20 | 0.00 | 95 | 921.0 |
| 20260906101504 | 65 | 181 | 0.0 | 0.9 | 0.00 | 0.20 | 0.00 | 95 | 921.2 |
| 20260906101005 | 66 | 183 | 0.0 | 0.9 | 0.00 | 0.20 | 0.00 | 95 | 921.2 |
| 20260906100005 | 66 | 186 | 0.9 | 1.7 | 0.00 | 0.20 | 0.00 | 95 | 921.2 |
| 20260906094504 | 66 | 138 | 0.0 | 0.9 | 0.00 | 0.20 | 0.00 | 95 | 921.2 |
| 20260906094005 | 66 | 138 | 0.9 | 1.7 | 0.00 | 0.20 | 0.00 | 95 | 921.2 |
| 20260906093504 | 66 | 13 | 0.9 | 1.7 | 0.00 | 0.20 | 0.00 | 95 | 921.2 |
| 20260906093004 | 66 | 184 | 0.0 | 1.7 | 0.00 | 0.20 | 0.00 | 95 | 921.2 |
| 20260906091004 | 65 | 285 | 0.0 | 0.9 | 0.00 | 0.20 | 0.00 | 95 | 921.1 |
| 20260906090504 | 65 | 138 | 0.0 | 0.9 | 0.00 | 0.20 | 0.00 | 95 | 921.0 |
| 20260906090004 | 65 | 169 | 0.0 | 0.9 | 0.00 | 0.20 | 0.00 | 95 | 921.0 |
| 20260906084504 | 65 | 103 | 0.9 | 1.7 | 0.00 | 0.20 | 0.00 | 95 | 920.7 |
| 20260906084004 | 65 | 106 | 1.7 | 2.6 | 0.00 | 0.20 | 0.00 | 95 | 920.7 |
| 20260906081004 | 64 | 170 | 0.0 | 0.9 | 0.00 | 0.20 | 0.00 | 95 | 920.4 |
| 20260906080004 | 64 | 148 | 0.9 | 1.7 | 0.00 | 0.20 | 0.00 | 95 | 920.4 |
| 20260906074004 | 63 | 283 | 0.0 | 0.0 | 0.00 | 0.20 | 0.00 | 95 | 920.4 |
| 20260906073504 | 63 | 351 | 0.0 | 0.9 | 0.00 | 0.20 | 0.00 | 95 | 920.3 |
| 20260906073004 | 63 | 204 | 0.0 | 1.7 | 0.00 | 0.20 | 0.00 | 95 | 920.3 |
| 20260906071004 | 63 | 294 | 0.9 | 1.7 | 0.00 | 0.20 | 0.00 | 95 | 920.5 |
| 20260906070004 | 63 | 16 | 0.0 | 0.9 | 0.00 | 0.20 | 0.00 | 95 | 920.6 |
| 20260906064504 | 64 | 108 | 0.0 | 0.9 | 0.00 | 0.20 | 0.00 | 95 | 920.5 |
| 20260906063505 | 64 | 204 | 0.0 | 1.7 | 0.00 | 0.20 | 0.00 | 95 | 920.7 |
| 20260906063006 | 64 | 14 | 0.9 | 1.7 | 0.00 | 0.20 | 0.00 | 95 | 920.5 |
| 20260906054505 | 64 | 237 | 0.0 | 0.9 | 0.00 | 0.20 | 0.00 | 95 | 920.6 |
| 20260906054005 | 64 | 337 | 0.0 | 0.0 | 0.00 | 0.20 | 0.00 | 95 | 920.6 |
| 20260906053506 | 64 | 337 | 0.0 | 0.0 | 0.00 | 0.20 | 0.00 | 95 | 920.6 |
| 20260906053006 | 64 | 337 | 0.0 | 0.9 | 0.00 | 0.20 | 0.00 | 95 | 920.6 |
| 20260906051505 | 64 | 172 | 0.0 | 0.0 | 0.00 | 0.20 | 0.00 | 95 | 920.6 |
| 20260906051006 | 64 | 172 | 0.0 | 0.0 | 0.00 | 0.20 | 0.00 | 95 | 920.6 |
| 20260906050505 | 64 | 172 | 0.0 | 0.9 | 0.00 | 0.20 | 0.00 | 95 | 920.8 |
| 20260906050007 | 64 | 145 | 0.0 | 0.9 | 0.00 | 0.20 | 0.00 | 95 | 920.9 |
| 20260906044005 | 64 | 150 | 0.0 | 0.9 | 0.09 | 0.20 | 0.00 | 95 | 920.9 |
| 20260906043505 | 65 | 179 | 0.0 | 0.9 | 0.09 | 0.20 | 0.00 | 95 | 920.9 |
| 20260906043005 | 65 | 202 | 0.0 | 0.9 | 0.09 | 0.20 | 0.00 | 95 | 920.8 |
| 20260906041005 | 65 | 101 | 0.0 | 0.9 | 0.09 | 0.20 | 0.00 | 95 | 920.7 |
| 20260906040505 | 65 | 284 | 0.0 | 0.9 | 0.09 | 0.20 | 0.00 | 95 | 920.8 |
| 20260906040005 | 65 | 52 | 0.0 | 0.9 | 0.00 | 0.41 | 0.00 | 95 | 921.0 |
| 20260906034505 | 66 | 232 | 0.0 | 0.0 | 0.00 | 0.41 | 0.09 | 95 | 921.2 |
| 20260906034005 | 66 | 232 | 0.0 | 0.0 | 0.00 | 0.41 | 0.09 | 95 | 921.3 |
| 20260906033505 | 66 | 343 | 0.0 | 0.9 | 0.00 | 0.41 | 0.09 | 95 | 921.6 |
| 20260906033005 | 66 | 148 | 0.0 | 0.9 | 0.00 | 0.41 | 0.09 | 95 | 921.7 |
| 20260906031504 | 67 | 357 | 0.9 | 0.9 | 0.00 | 0.41 | 0.09 | 95 | 922.4 |
| 20260906031005 | 67 | 309 | 0.0 | 0.9 | 0.00 | 0.41 | 0.09 | 95 | 922.6 |
| 20260906030005 | 67 | 150 | 0.0 | 0.9 | 0.00 | 0.41 | 0.09 | 95 | 922.9 |
| 20260906024505 | 67 | 121 | 0.0 | 1.7 | 0.00 | 0.41 | 0.09 | 95 | 923.2 |
| 20260906024005 | 68 | 30 | 0.9 | 1.7 | 0.00 | 0.41 | 0.09 | 95 | 923.1 |
| 20260906023505 | 68 | 170 | 0.0 | 0.9 | 0.00 | 0.41 | 0.09 | 95 | 923.3 |
| 20260906023005 | 68 | 151 | 0.0 | 1.7 | 0.00 | 0.41 | 0.09 | 95 | 923.3 |
| 20260906021504 | 68 | 15 | 0.0 | 0.9 | 0.00 | 0.41 | 0.09 | 94 | 922.9 |
| 20260906021005 | 68 | 247 | 0.0 | 0.9 | 0.00 | 0.41 | 0.09 | 94 | 923.0 |
| 20260906020505 | 68 | 74 | 0.9 | 0.9 | 0.00 | 0.41 | 0.09 | 94 | 923.0 |
| 20260906020004 | 68 | 80 | 0.0 | 0.9 | 0.00 | 0.41 | 0.09 | 94 | 923.1 |
| 20260906014505 | 69 | 66 | 0.0 | 0.9 | 0.00 | 0.41 | 0.09 | 94 | 923.6 |
| 20260906014004 | 69 | 187 | 0.0 | 0.9 | 0.00 | 0.41 | 0.09 | 94 | 923.6 |
| 20260906013504 | 69 | 152 | 0.9 | 1.7 | 0.00 | 0.41 | 0.09 | 94 | 923.4 |
| 20260906013006 | 69 | 147 | 0.9 | 2.6 | 0.00 | 0.41 | 0.09 | 94 | 923.2 |
| 20260906010504 | 70 | 181 | 0.0 | 0.9 | 0.00 | 0.41 | 0.09 | 92 | 922.4 |
| 20260906010004 | 70 | 136 | 0.0 | 1.7 | 0.00 | 0.41 | 0.09 | 92 | 922.2 |
| 20260906004504 | 71 | 153 | 0.0 | 1.7 | 0.00 | 0.41 | 0.09 | 91 | 921.3 |
| 20260906004005 | 71 | 119 | 0.0 | 0.9 | 0.00 | 0.41 | 0.09 | 90 | 920.5 |
| 20260906003005 | 71 | 121 | 0.0 | 0.9 | 0.00 | 0.41 | 0.09 | 89 | 918.9 |
| 20260906001505 | 72 | 155 | 0.0 | 0.9 | 0.00 | 0.41 | 0.09 | 87 | 916.0 |
| 20260906001005 | 72 | 55 | 0.0 | 0.9 | 0.00 | 0.41 | 0.09 | 87 | 915.5 |
| 20260906000004 | 73 | 68 | 0.0 | 2.6 | 0.00 | 0.41 | 0.09 | 84 | 913.2 |
| 20260905234004 | 75 | 131 | 0.9 | 1.7 | 0.00 | 0.41 | 0.09 | 81 | 911.2 |
| 20260905233504 | 76 | 117 | 0.9 | 2.6 | 0.00 | 0.41 | 0.09 | 79 | 911.1 |
| 20260905233004 | 76 | 35 | 0.9 | 2.6 | 0.00 | 0.41 | 0.09 | 79 | 911.3 |